Volver al catálogo

FENGYUN 1C DEB

ActivoSSO
NORAD 31025·DEBRIS·🇨🇳 China

Lanzado May 10, 1999 desde Taiyuan Satellite Launch Center

Loading…

Próximos Pases (próximas 24 horas)

TLE

ActualizadoSource: Space-Track

Época: Sep 13, 2026, 16:41 UTC

1 31025U 99025BDT 26256.69534816  .00000769  00000-0  32331-3 0  9996
2 31025  98.6014 244.4847 0170233 296.2251  62.1514 14.21212211682706

Sigue FENGYUN 1C DEB en tiempo real con AllMySat

Download on the App Store